Location: ?????
(30.2541°N, 31.0910°E)
Time: 09:25:29
(UTC+00:00)

SL-24 R/B - RUBIN 2 - Pass Details

Date: 27 September 2022
Orbit: 600 x 995 km, 64.6° (Epoch: 28 November)

Event Time Altitude Azimuth Distance (km) Brightness Sun altitude
Rises 03:13:33 0° 206° (SSW) 3,030 6.8 -8.0°
Reaches altitude 10° 03:15:56 10° 207° (SSW) 2,067 6.0 -7.5°
Maximum altitude 03:20:34 89° 277° (W) 628 3.6 -6.5°
Drops below altitude 10° 03:24:56 10° 27° (NNE) 1,952 6.5 -5.5°
Sets 03:27:09 0° 28° (NNE) 2,847 7.4 -5.0°
